FW8074 Weather Reports


Display with metric or nautical units.
time (UTC)temp
F
wind
direction
speed
MPH
gust
MPH
rain 1hr
in
rain 24hr
in
rain mn
in
humidity
%
barometer
mb
20260504201602 79 253 3.0 7.0 0.00 0.00 0.00 33 1011.4
20260504200057 79 278 4.0 9.0 0.00 0.00 0.00 35 1011.6
20260504194603 79 263 4.0 7.0 0.00 0.00 0.00 35 1011.7
20260504193057 78 256 2.0 8.0 0.00 0.00 0.00 33 1011.9
20260504191613 78 277 5.0 11.0 0.00 0.00 0.00 33 1012.0
20260504190059 79 300 3.0 8.0 0.00 0.00 0.00 36 1012.2
20260504184605 78 255 2.0 9.0 0.00 0.00 0.00 35 1012.4
20260504183055 77 259 5.0 9.0 0.00 0.00 0.00 36 1012.4
20260504181556 77 244 2.0 6.0 0.00 0.00 0.00 36 1012.4
20260504180056 77 239 2.0 9.0 0.00 0.00 0.00 37 1012.7
20260504174555 76 184 2.0 7.0 0.00 0.00 0.00 37 1012.9
20260504173056 75 264 3.0 9.0 0.00 0.00 0.00 38 1013.1
20260504171556 75 57 3.0 7.0 0.00 0.00 0.00 38 1013.3
20260504140106 66 0 0.0 0.0 0.00 0.00 0.00 64 1014.4
20260504100105 48 0 0.0 0.0 0.00 0.00 0.00 96 1014.3
20260504081601 49 0 0.0 0.0 0.00 0.00 0.00 96 1014.1
20260504060108 49 0 0.0 0.0 0.00 0.00 0.00 94 1014.6
20260504050108 49 0 0.0 0.0 0.00 0.00 0.00 93 1014.6
20260504044555 49 0 0.0 0.0 0.00 0.00 0.00 93 1014.5
20260504043103 49 0 0.0 0.0 0.00 0.00 0.00 92 1014.5
20260504041555 49 0 0.0 0.0 0.00 0.00 0.00 92 1014.5
20260504040103 49 0 0.0 0.0 0.00 0.00 0.00 91 1014.5
20260504034613 49 0 0.0 0.0 0.00 0.00 0.00 91 1014.5
20260504033059 50 0 0.0 0.0 0.00 0.00 0.00 90 1014.4
20260504031605 50 0 0.0 0.0 0.00 0.00 0.00 89 1014.4
20260504030113 50 0 0.0 0.0 0.00 0.00 0.00 89 1014.4
20260504024556 51 0 0.0 0.0 0.00 0.00 0.00 88 1014.4
20260504023058 51 0 0.0 0.0 0.00 0.00 0.00 86 1014.4
20260504021605 52 0 0.0 0.0 0.00 0.00 0.00 84 1014.3
20260504020055 53 0 0.0 0.0 0.00 0.00 0.00 84 1014.2
20260504014556 54 0 0.0 0.0 0.00 0.00 0.00 81 1013.9
20260504013057 55 0 0.0 0.0 0.00 0.00 0.00 78 1013.8
20260504011558 55 0 0.0 0.0 0.00 0.00 0.00 76 1013.5
20260504010100 57 0 0.0 0.0 0.00 0.00 0.00 72 1013.5
20260504004601 58 0 0.0 0.0 0.00 0.00 0.00 70 1013.4
20260504003057 60 0 0.0 0.0 0.00 0.00 0.00 64 1013.2
20260504001603 61 0 0.0 0.0 0.00 0.00 0.00 60 1013.2
20260504000136 63 0 0.0 0.0 0.00 0.00 0.00 57 1012.9
20260503234601 64 0 0.0 0.0 0.00 0.00 0.00 54 1013.0
20260503233058 66 0 0.0 0.0 0.00 0.00 0.00 51 1013.0
20260503231552 67 231 0.0 2.0 0.00 0.00 0.00 49 1013.0
20260503230057 67 0 0.0 2.0 0.00 0.00 0.00 46 1013.0
20260503224553 68 313 2.0 4.0 0.00 0.00 0.00 44 1013.0
20260503223055 68 0 1.0 5.0 0.00 0.00 0.00 44 1013.1
20260503221554 69 326 1.0 4.0 0.00 0.00 0.00 42 1013.0
20260503220058 69 194 2.0 7.0 0.00 0.00 0.00 42 1013.0
20260503214556 69 262 2.0 4.0 0.00 0.00 0.00 43 1013.1
20260503213102 69 277 1.0 4.0 0.00 0.00 0.00 44 1013.0
20260503211553 69 269 2.0 7.0 0.00 0.00 0.00 41 1013.1
20260503210054 70 257 1.0 4.0 0.00 0.00 0.00 42 1013.1
20260503204559 69 244 3.0 6.0 0.00 0.00 0.00 42 1013.2
20260503203108 69 276 2.0 7.0 0.00 0.00 0.00 40 1013.3